SCP
0 0 0 0 0 0 0 0 0 0 0 0 0 0 0 0 0 0 0 0 0 0 0 0 0 0 0 0 0 0 0 0 0 0 0 0 0 0 0 0 0 0 0 0
0 0 0 0 0 0 0 0 0 0 0 0 0 0 0 0 0 0 0 0 0 0 0 0 0 0 0 0 0 0 0 0 0 0 0 0 0 0 0 0 0 0 0 0
0 0 0 0 0 0 0 0 0 0 0 0 0 0 -0 -0 -0 -0 0 0 0 0 0 0 0 0 0 0 0 0 0 0 0 0 0 0 0 0 0 0 0 0 0 0
0 0 0 0 0 0 0 0 0 0 0 0 0 -0 0 0 -0 0 0 0 0 0 0 0 0 0 0 0 0 0 0 0 0 0 0 0 0 0 0 0 0 0 0 0
0 0 0 0 0 0 0 0 0 0 0 0 -0 -0 0 0 0 0 0 0 0 0 0 0 0 0 0 0 0 0 0 0 0 0 0 0 0 0 0 0 0 0 0 0
0 0 0 0 0 0 0 0 0 0 0 0 0 0 0 0 0 0 0 0 0 0 0 0 0 0 0 0 0 0 0 0 0 0 0 0 0 0 0 0 0 0 0 0
0 0 0 0 0 0 0 0 0 0 0 0 0 0 0 0 0 0 0 0 0 0 0 0 0 0 0 0 0 0 0 0 0 0 0 0 0 0 0 0 0 0 0 0
0 0 0 0 0 0 0 0 0 0 0 0 0 0 0 0 0 0 0 0 0 0 0 0 0 0 0 0 0 0 0 0 0 0 0 0 0 0 0 0 0 0 0 0
0 0 0 0 0 0 0 0 0 0 0 0 0 0 0 0 0 0 0 0 0 0 0 0 0 0 0 0 0 0 0 0 0 0 0 0 0 0 0 0 0 0 0 0
0 0 0 0 0 0 0 0 0 0 0 0 0 0 0 0 0 0 0 0 0 0 0 0 0 0 0 0 0 0 0 0 0 0 0 0 0 0 0 0 0 0 0 0
0 0 0 0 0 0 0 0 0 0 0 0 0 0 0 0 0 0 0 0 0 0 0 0 0 0 0 0 0 0 0 0 0 0 0 0 0 0 0 0 0 0 0 0
0 0 0 0 0 0 0 0 0 0 0 0 0 0 0 0 0 0 0 0 0 0 0 0 0 0 0 0 0 0 0 0 0 0 0 0 0 0 0 0 0 0 0 0
0 0 0 0 0 0 0 0 0 0 0 0 0 0 0 0 0 0 0 0 0 0 0 0 0 0 0 0 0 0 0 0 0 0 0 0 0 0 0 0 0 0 0 0
0 0 0 0 0 0 0 0 0 0 0 0 0 0 0 0 0 0 0 0 0 0 0 0 0 0 0 0 0 0 0 0 0 0 0 0 0 0 0 0 0 0 0 0
0 0 0 0 0 0 0 0 0 0 0 0 0 0 0 0 0 0 0 0 0 0 0 0 0 0 0 0 0 0 0 0 0 0 0 0 0 0 0 0 0 0 0 0
0 0 0 0 0 0 0 0 0 0 0 0 0 0 0 0 0 0 0 0 0 0 0 0 0 0 0 0 0 0 0 0 0 0 0 0 0 0 0 0 0 0 0 0
0 0 0 0 0 0 0 0 0 0 0 0 0 0 0 0 0 0 0 0 0 0 0 0 0 0 0 0 0 0 0 0 0 0 0 0 0 0 0 0 0 0 0 0
0 0 0 0 0 0 0 0 0 0 0 0 0 0 0 0 0 0 0 0 0 0 0 0 0 0 0 0 0 0 0 0 0 0 0 0 0 0 0 0 0 0 0 0
0 0 0 0 0 0 0 0 0 0 0 0 0 0 0 0 0 0 0 0 0 0 0 0 0 0 0 0 0 0 0 0 0 0 0 0 0 0 0 0 0 0 0 0
0 0 0 0 0 0 0 0 0 0 0 0 0 0 0 0 0 0 0 0 0 0 0 0 0 0 0 0 0 0 0 0 0 0 0 0 0 0 0 0 0 0 0 0
0 0 0 0 0 0 0 0 0 0 0 0 0 0 0 0 0 0 0 0 0 0 0 0 0 0 0 0 0 0 0 0 0 0 0 0 0 0 0 0 0 0 0 0
0 0 0 0 0 0 0 0 0 0 0 0 0 0 0 0 0 0 0 0 0 0 0 0 0 0 0 0 0 0 0 0 0 0 0 0 0 0 0 0 0 0 0 0
0 0 0 0 0 0 0 0 0 0 0 0 0 0 0 0 0 0 0 0 0 0 0 0 0 0 0 0 0 0 0 0 0 0 0 0 0 0 0 0 0 0 0 0
0 0 0 0 0 0 0 0 0 0 0 0 0 0 0 0 0 0 0 0 0 0 0 0 0 0 0 0 0 0 0 0 0 0 0 0 0 0 0 0 0 0 0 0
0 0 0 0 0 0 0 0 0 0 0 0 0 0 0 0 0 0 0 0 0 0 0 0 0 0 0 0 0 0 0 0 0 0 0 0 0 0 0 0 0 0 0 0
0 0 0 0 0 0 0 0 0 0 0 0 0 0 0 0 0 0 0 0 0 0 0 0 0 0 0 0 0 0 0 0 0 0 0 0 0 0 0 0 0 0 0 0
0 0 0 0 0 0 0 0 0 0 0 0 0 0 0 0 0 0 0 0 0 0 0 0 0 0 0 0 0 0 0 0 0 0 0 0 0 0 0 0 0 0 0 0
Wind_Speed
7 5 1 1 3 3 1 2 5 1 4 2 5 6 7 7 8 8 9 9 9 9 8 9 9 9 9 10 10 11 11 10 10 9 7 7 7 6 5 4 3 2 2 2
3 2 2 3 5 4 5 4 3 5 3 3 5 5 7 8 9 9 10 11 11 10 10 10 11 11 11 11 11 11 11 11 11 9 7 7 7 6 5 5 3 2 1 0
4 3 2 4 6 4 4 4 3 2 3 7 8 11 11 11 9 10 12 13 13 12 11 11 11 10 10 10 11 11 11 11 10 9 8 7 7 7 7 6 5 4 3 2
1 2 0 1 3 5 4 3 3 2 5 7 9 12 12 9 7 9 12 13 13 12 12 12 11 11 10 10 10 10 10 11 10 9 9 8 6 7 8 6 6 5 5 5
2 1 2 2 3 4 3 1 2 5 8 9 10 9 7 6 6 9 12 13 13 12 13 12 13 12 11 11 11 11 11 10 10 9 9 8 7 8 7 7 7 7 6 7
3 1 0 2 6 7 3 2 1 5 8 10 9 8 7 8 11 14 15 14 13 13 12 12 13 11 10 12 11 12 12 11 10 9 9 9 9 8 7 7 9 9 8 8
3 1 2 3 10 7 1 5 7 7 8 9 7 9 11 13 15 15 16 16 15 13 12 12 12 10 11 12 13 13 11 11 10 10 10 10 8 7 7 7 9 9 9 8
3 3 2 5 5 3 4 6 6 8 9 10 12 14 15 15 15 14 15 15 14 12 13 12 11 10 12 14 14 12 10 11 11 10 10 9 7 7 6 7 9 10 9 8
2 1 3 3 3 5 5 7 8 8 11 13 13 14 15 14 14 14 15 14 12 12 14 13 11 10 13 15 13 12 11 12 12 11 10 8 8 7 6 6 8 9 10 10
1 1 4 6 5 5 6 8 10 12 13 13 14 16 16 15 14 13 14 14 13 13 14 14 12 12 13 14 13 12 12 12 11 10 10 8 7 6 6 6 7 9 11 11
1 4 7 6 6 7 9 10 12 12 12 13 14 16 17 15 15 14 14 13 13 13 15 16 14 14 14 14 12 12 12 12 11 10 9 9 8 7 8 7 8 10 11 12
3 5 5 9 9 10 10 11 13 14 14 13 14 17 18 16 15 15 15 14 14 15 15 16 14 14 14 13 12 12 11 10 9 8 7 7 7 8 11 10 11 14 14 14
5 5 6 10 10 9 9 12 15 15 16 17 16 16 17 16 15 14 15 15 16 16 16 16 15 15 14 12 11 12 12 10 8 8 8 7 7 7 6 5 8 12 16 17
7 5 7 8 10 12 14 16 15 14 15 15 16 16 16 16 16 16 17 17 17 17 16 16 15 16 14 11 11 12 11 12 11 8 8 7 7 7 6 5 5 5 10 16
7 6 9 11 11 13 13 14 15 16 15 15 14 15 16 17 18 18 18 18 17 17 17 16 16 16 13 11 11 11 10 8 8 8 8 7 7 7 6 7 7 7 7 9
8 10 11 11 13 15 15 16 16 16 16 16 16 16 17 18 18 19 19 18 17 18 18 17 17 16 12 11 10 9 9 14 12 8 7 7 7 6 6 6 7 8 10 11
7 9 10 13 14 15 15 15 15 16 16 17 18 18 18 19 19 19 19 18 17 18 17 17 16 14 12 10 10 8 7 9 13 9 6 6 6 6 5 5 7 8 10 13
8 10 11 13 14 16 17 15 15 17 17 17 18 18 19 20 20 21 20 20 19 18 17 16 14 12 11 10 8 7 6 6 6 6 6 5 5 5 5 6 8 9 9 11
11 11 12 13 14 14 15 15 16 16 16 17 18 19 19 20 20 20 20 19 19 18 16 13 15 13 11 11 10 6 6 6 6 5 5 5 5 4 5 6 7 9 10 12
10 11 12 13 14 14 15 15 16 16 16 17 18 19 20 20 20 20 19 17 15 13 13 14 13 10 9 9 10 5 5 6 6 5 5 4 4 4 5 6 8 9 10 11
12 12 13 14 14 14 14 15 16 17 18 18 18 20 20 21 20 19 17 16 14 13 13 13 10 8 7 6 7 4 5 4 4 4 4 4 4 4 6 7 8 9 10 11
10 11 13 13 14 15 14 14 14 17 18 19 19 20 20 20 20 18 16 13 13 15 12 9 7 8 8 7 4 4 4 4 4 4 3 3 3 5 6 8 8 9 9 10
10 10 11 13 14 16 16 14 15 16 18 19 20 20 20 19 15 15 14 12 11 14 11 8 8 9 8 5 3 3 3 4 3 3 3 3 4 5 6 8 8 9 10 9
9 10 11 11 12 13 15 17 17 15 17 18 17 19 18 16 13 12 12 15 15 15 9 8 9 8 6 2 2 2 3 3 3 3 3 3 4 5 6 7 8 9 9 11
8 9 9 13 13 12 14 16 17 17 16 15 18 18 15 12 13 14 13 14 15 13 8 8 8 7 3 2 1 2 2 2 2 2 2 3 4 5 6 7 8 9 9 9
7 8 9 11 11 11 12 12 13 14 14 15 15 14 14 13 13 12 11 12 14 12 8 6 6 5 3 2 1 2 1 1 1 1 2 3 5 6 7 8 10 8 8 8
8 7 8 9 9 10 11 12 13 14 14 14 16 15 14 14 13 14 14 11 10 9 7 6 5 4 3 2 2 2 1 1 1 1 2 3 4 5 7 8 7 7 7 7
Wind_Direction
237 245 218 319 353 12 104 230 225 206 115 1 332 328 327 333 339 350 354 354 353 347 341 336 335 334 333 330 329 328 323 314 300 293 276 251 238 233 232 238 247 267 305 341
281 276 156 75 28 37 35 22 62 88 76 331 316 323 329 330 335 341 341 339 336 334 331 328 326 323 323 321 320 322 322 317 308 300 289 262 242 230 223 224 224 218 229 59
276 310 86 38 3 43 59 28 37 52 339 327 332 335 327 319 320 327 330 328 324 321 315 309 306 304 304 305 309 313 315 317 315 307 295 282 259 233 220 214 205 201 194 165
292 17 283 94 50 81 104 83 56 26 333 331 321 312 298 291 292 309 315 313 309 304 300 297 295 292 289 293 297 301 305 311 315 312 305 295 275 247 228 209 200 197 190 176
90 99 120 124 29 10 325 246 50 344 325 319 315 307 293 283 285 292 294 294 292 289 288 287 287 285 287 289 290 292 294 298 304 306 305 299 283 265 243 216 204 196 188 178
80 16 346 14 326 324 279 234 21 320 311 314 325 317 294 291 297 298 298 296 293 291 289 285 284 282 280 281 284 284 284 287 290 291 291 292 282 268 253 226 211 196 191 184
51 49 78 317 311 323 346 304 308 301 296 299 288 271 280 290 294 292 294 294 294 293 289 284 285 283 278 279 275 274 277 280 283 283 279 279 279 270 253 233 211 194 190 184
21 22 358 333 2 35 268 276 283 288 288 288 285 286 292 295 294 293 295 294 293 291 288 287 284 281 280 278 276 276 276 278 277 277 278 281 278 277 260 236 214 195 186 178
76 158 255 273 262 262 264 281 286 285 288 293 293 292 294 293 290 291 289 290 287 284 286 285 279 272 275 278 278 278 276 275 275 275 274 265 264 268 261 239 220 199 186 182
72 305 290 290 279 278 280 277 282 285 288 290 289 290 290 289 287 285 285 284 283 283 284 284 279 273 271 275 275 274 273 274 273 271 274 265 254 253 249 239 221 202 189 183
337 293 307 302 289 288 296 297 294 292 291 287 286 289 289 289 287 286 286 284 281 281 281 281 279 275 275 274 272 272 272 273 272 268 268 266 255 245 242 235 224 206 195 183
250 259 259 275 283 294 294 290 292 294 293 284 282 286 290 290 289 288 288 286 286 283 281 282 280 277 276 271 267 269 272 271 268 267 267 262 258 260 243 235 229 217 202 187
248 269 263 272 284 284 281 284 290 290 289 292 290 288 290 291 291 289 289 289 289 288 287 286 285 282 279 272 267 266 266 267 265 263 263 262 254 255 255 249 231 210 193 184
261 275 285 282 284 288 289 290 291 290 290 288 291 294 295 295 295 294 294 293 292 291 290 288 286 284 281 274 268 268 266 269 268 260 257 257 252 250 243 231 223 203 189 179
286 281 271 280 286 290 293 297 301 301 299 298 297 297 298 299 298 297 296 296 296 293 292 290 288 286 283 275 270 269 268 263 260 258 252 250 250 246 235 224 216 190 164 164
289 294 291 294 297 300 304 305 304 302 302 302 303 301 300 299 298 297 298 299 297 295 294 292 288 287 285 278 274 272 267 268 268 259 250 245 244 238 230 218 200 180 170 161
296 297 298 301 303 302 302 302 301 302 304 305 305 305 304 303 301 300 300 299 295 293 291 289 288 288 285 278 272 270 265 266 271 267 251 240 239 234 228 208 190 177 167 162
277 280 288 294 301 306 307 306 304 305 305 304 306 306 306 305 304 303 303 302 299 295 292 289 287 288 282 278 273 266 262 259 256 255 252 241 232 225 223 204 184 170 157 157
301 297 299 300 300 301 303 304 306 307 306 306 307 307 305 303 303 303 303 302 301 299 296 294 291 289 284 281 282 265 258 255 254 254 253 238 231 226 219 190 172 164 156 157
301 300 301 301 302 303 305 307 307 308 308 309 308 308 308 307 306 306 304 300 295 292 295 297 296 290 283 280 284 269 260 253 251 253 253 241 232 226 202 175 164 159 157 161
302 303 304 306 308 307 306 307 310 311 312 312 310 310 309 308 307 307 305 302 300 299 301 297 292 285 280 276 278 267 259 248 246 250 256 243 233 211 179 165 161 160 160 162
300 304 307 310 311 312 312 311 311 312 314 314 314 313 312 311 311 309 302 298 300 304 305 300 293 284 280 279 268 259 253 247 246 248 247 238 219 184 166 161 160 160 159 161
301 304 307 310 311 311 312 316 318 319 317 316 315 315 314 313 312 312 313 312 311 312 310 303 302 298 291 283 260 247 245 247 247 245 243 234 206 171 163 160 160 157 156 159
307 307 306 307 311 315 320 323 322 319 316 315 314 315 316 316 315 314 312 312 316 317 317 315 313 311 304 282 256 243 242 245 245 244 242 217 181 163 160 160 158 155 156 158
305 306 311 321 326 324 320 320 321 321 321 320 319 320 322 320 319 320 320 321 325 325 326 328 330 328 321 295 271 262 262 251 241 238 216 180 168 162 157 155 154 154 156 160
309 314 314 313 313 316 321 323 323 323 324 324 325 327 327 326 324 325 326 327 331 331 333 336 339 338 334 321 305 288 276 262 247 232 183 165 158 153 150 152 153 156 158 161
312 313 315 322 323 324 324 324 323 324 325 327 328 328 329 331 333 335 335 337 337 338 340 341 342 339 338 338 343 348 5 14 28 85 125 136 142 147 150 151 153 155 158 162